This demonstration page uses our WeatherBlox Daily Observations layout. Learn more.

Left ArrowRight Arrow

39.08367, -84.50855

Hourly Observations for April 15, 2017

Temp ( °F °C ) Dew Point ( °F °C ) Humidity (%) Winds ( mph kmh ) Pressure ( in mb ) Visibility ( mi km ) Precip ( " mm )
12:53 am 00:53 Clear 58 14.4 57 13.9 97 97 Calm 30.16 1021 10 16.0934 0 0
1:53 am 01:53 Mostly Clear 58 14.4 56 13.3 93 93 Calm 30.16 1021 10 16.0934 0 0
2:53 am 02:53 Mostly Clear 58 14.4 56 13.3 93 93 Calm 30.14 1021 10 16.0934 0 0
3:53 am 03:53 Clear 58 14.4 56 13.3 93 93 Calm 30.14 1021 10 16.0934 0 0
4:53 am 04:53 Clear 57 13.9 56 13.3 96 96 Calm 30.14 1021 10 16.0934 0 0
5:53 am 05:53 Mostly Clear 57 13.9 56 13.3 96 96 Calm 30.14 1021 10 16.0934 0 0
6:53 am 06:53 Mostly Clear 57 13.9 55 12.8 93 93 Calm 30.15 1021 10 16.0934 0 0
7:53 am 07:53 Mostly Sunny 58 14.4 55 12.8 90 90 SW 3 6 30.18 1022 10 16.0934 0 0
8:53 am 08:53 Cloudy with Light Rain 65 18.3 59 15 81 81 SW 20 31 30.2 1023 5 8.0467 0.01 0.254
9:06 am 09:06 Cloudy with Heavy Rain 64 18 59 15 83 83 WSW 13 20 30.18 1022 2 3.21868 0 0
9:16 am 09:16 Cloudy with Light Rain 66 18.9 60 15.6 81 81 W 13 20 30.18 1022 5 8.0467 0.07 1.778
9:23 am 09:23 Cloudy with Rain 66 18.9 60 15.6 81 81 NW 9 15 30.18 1022 4 6.43736 0.08 2.032
9:53 am 09:53 Cloudy 64 17.8 63 17.2 96 96 S 6 9 30.2 1023 9 14.48406 0.08 2.032
10:53 am 10:53 Partly Cloudy 67 19.4 63 17.2 87 87 S 6 9 30.2 1023 10 16.0934 0 0
11:53 am 11:53 Sunny 73 22.8 62 16.7 69 69 SSW 8 13 30.18 1022 10 16.0934 0 0
12:53 pm 12:53 Sunny 78 25.6 60 15.6 54 54 SW 14 22 30.16 1021 10 16.0934 0 0
1:53 pm 13:53 Mostly Sunny 81 27.2 60 15.6 49 49 SW 16 26 30.14 1021 10 16.0934 0 0
2:53 pm 14:53 Partly Cloudy 81 27.2 58 14.4 45 45 SW 14 22 30.11 1020 10 16.0934 0 0
3:53 pm 15:53 Mostly Cloudy 81 27.2 57 13.9 44 44 SSW 17 28 30.09 1019 10 16.0934 0 0
4:53 pm 16:53 Partly Cloudy 81 27.2 56 13.3 42 42 SW 17 28 30.07 1018 10 16.0934 0 0
5:53 pm 17:53 Partly Cloudy 80 26.7 55 12.8 42 42 SW 15 24 30.05 1018 10 16.0934 0 0
6:53 pm 18:53 Partly Cloudy 78 25.6 55 12.8 45 45 SW 15 24 30.05 1018 10 16.0934 0 0
7:53 pm 19:53 Mostly Sunny 74 23.3 55 12.8 52 52 SW 9 15 30.05 1018 10 16.0934 0 0
8:53 pm 20:53 Clear 69 20.6 55 12.8 61 61 SSW 9 15 30.06 1018 10 16.0934 0 0
9:53 pm 21:53 Clear 65 18.3 56 13.3 73 73 SSW 8 13 30.06 1018 10 16.0934 0 0
10:53 pm 22:53 Mostly Clear 67 19.4 56 13.3 68 68 SSW 9 15 30.05 1018 10 16.0934 0 0
11:53 pm 23:53 Clear 65 18.3 56 13.3 73 73 SSW 8 13 30.04 1017 10 16.0934 0 0

Powered by AerisWeather